Crossville, TN

3:32 PM CDT on April 28, 2017 (GMT -0500)
Crossville Memorial-Whitson

Weather History for KCSV - January, 2014

Change the Weather History Date:

Thursday, January 9, 2014

  Actual Average Record
Temperature  
Mean Temperature 34 °F 36 °F  
Max Temperature 44 °F 44 °F 66 °F (1957)
Min Temperature 25 °F 27 °F -11 °F (1970)
Degree Days  
Heating Degree Days 30    
Month to date heating degree days  
Since 1 July heating degree days  
Cooling Degree Days 0    
Month to date cooling degree days  
Year to date cooling degree days  
Moisture  
Dew Point 27 °F    
Average Humidity 66    
Maximum Humidity 93    
Minimum Humidity 35    
Precipitation  
Precipitation 0.00 in 0.15 in 1.39 in (1974)
Month to date precipitation 1.36  
Year to date precipitation 1.36  
Sea Level Pressure  
Sea Level Pressure 30.39 in    
Wind  
Wind Speed 3 mph (South)    
Max Wind Speed 8 mph    
Max Gust Speed -    
Visibility 10 miles    
Events      
T = Trace of Precipitation, MM = Missing Value Source: NWS Daily Summary

Daily Weather History Graph

Daily Weather History Graph

Search for Another Location

Airport or City:

Trip Planner

Search our weather history database for the weather conditions in past years. The results will help you decide how hot, cold, wet, or windy it might be!

Date:

Astronomy

Jan. 09, 2014 Rise Set
Actual Time 6:51 AM CST 4:44 PM CST
Civil Twilight 6:23 AM CST 5:12 PM CST
Nautical Twilight 5:51 AM CST 5:43 PM CST
Astronomical Twilight 5:20 AM CST 6:14 PM CST
Moon 12:06 PM CST (1/9) 1:02 AM CST (1/9)
Length of Visible Light 10h 49m
Length of Day
9h 52m
Waxing Gibbous, 66% of the Moon is Illuminated
Jan 9
Waxing Gibbous
Jan 15
Full
Jan 23
Last Quarter
Jan 30
New
Feb 6
First Quarter

Hourly Weather History & Observations

Time (CST) Temp. Windchill Dew Point Humidity Pressure Visibility Wind Dir Wind Speed Gust Speed Precip Events Conditions
12:53 AM 28.9 °F - 19.9 °F 69% 30.45 in 10.0 mi Calm Calm - N/A   Overcast
1:53 AM 27.0 °F - 19.9 °F 75% 30.44 in 10.0 mi Calm Calm - N/A   Clear
2:53 AM 28.0 °F - 21.9 °F 78% 30.45 in 10.0 mi Calm Calm - N/A   Mostly Cloudy
3:53 AM 28.9 °F - 21.0 °F 72% 30.45 in 10.0 mi Calm Calm - N/A   Overcast
4:53 AM 27.0 °F - 21.0 °F 78% 30.47 in 10.0 mi Calm Calm - N/A   Mostly Cloudy
5:53 AM 25.0 °F - 19.0 °F 78% 30.49 in 10.0 mi Calm Calm - N/A   Scattered Clouds
6:53 AM 26.1 °F - 21.0 °F 81% 30.48 in 10.0 mi Calm Calm - N/A   Overcast
7:53 AM 28.9 °F - 18.0 °F 64% 30.48 in 10.0 mi Calm Calm - N/A   Mostly Cloudy
8:53 AM 32.0 °F - 17.1 °F 54% 30.48 in 10.0 mi Calm Calm - N/A   Mostly Cloudy
9:53 AM 37.9 °F - 16.0 °F 41% 30.46 in 10.0 mi Calm Calm - N/A   Overcast
10:53 AM 41.0 °F 36.4 °F 15.1 °F 35% 30.42 in 10.0 mi Variable 6.9 mph - N/A   Scattered Clouds
11:53 AM 42.1 °F 37.1 °F 19.9 °F 41% 30.38 in 10.0 mi South 8.1 mph - N/A   Clear
12:53 PM 44.1 °F 39.5 °F 21.9 °F 42% 30.35 in 10.0 mi South 8.1 mph - N/A   Clear
1:53 PM 44.1 °F 40.8 °F 28.9 °F 55% 30.36 in 10.0 mi South 5.8 mph - N/A   Mostly Cloudy
2:02 PM 44.6 °F 41.4 °F 28.4 °F 53% 30.33 in 10.0 mi SW 5.8 mph - N/A   Mostly Cloudy
2:51 PM 44.6 °F 40.7 °F 30.2 °F 57% 30.33 in 10.0 mi South 6.9 mph - N/A   Overcast
2:53 PM 44.1 °F 40.1 °F 30.0 °F 58% 30.37 in 10.0 mi SSE 6.9 mph - N/A   Overcast
3:53 PM 43.0 °F 40.3 °F 28.9 °F 58% 30.38 in 10.0 mi South 4.6 mph - N/A   Overcast
4:07 PM 42.8 °F 40.1 °F 28.4 °F 57% 30.35 in 10.0 mi South 4.6 mph - N/A   Overcast
5:53 PM 42.1 °F 39.2 °F 30.0 °F 62% 30.37 in 10.0 mi SSE 4.6 mph - N/A   Overcast
6:03 PM 42.8 °F 40.1 °F 30.2 °F 61% 30.34 in 10.0 mi SSE 4.6 mph - N/A   Overcast
6:44 PM 42.8 °F 39.3 °F 30.2 °F 61% 30.33 in 10.0 mi South 5.8 mph - N/A   Overcast
6:53 PM 41.0 °F 37.1 °F 30.0 °F 65% 30.38 in 10.0 mi South 5.8 mph - N/A   Overcast
7:53 PM 42.1 °F 38.4 °F 36.0 °F 79% 30.38 in 10.0 mi South 5.8 mph - N/A   Overcast
8:53 PM 42.1 °F 39.2 °F 36.0 °F 79% 30.37 in 10.0 mi South 4.6 mph - N/A   Overcast
9:18 PM 42.8 °F 38.6 °F 35.6 °F 76% 30.33 in 10.0 mi SSE 6.9 mph - N/A   Overcast
9:53 PM 41.0 °F 37.1 °F 36.0 °F 82% 30.34 in 10.0 mi South 5.8 mph - N/A   Overcast
10:53 PM 41.0 °F 37.1 °F 36.0 °F 82% 30.32 in 10.0 mi South 5.8 mph - N/A   Overcast
11:05 PM 39.2 °F 33.6 °F 37.4 °F 93% 30.30 in 10.0 mi South 8.1 mph - N/A   Overcast
11:53 PM 39.9 °F 35.8 °F 37.9 °F 93% 30.30 in 4.0 mi Variable 5.8 mph - N/A   Overcast